This demonstration page uses our WeatherBlox Daily Observations layout. Learn more.

Left ArrowRight Arrow

Hourly Observations for July 7, 2015

Temp ( °F °C ) Dew Point ( °F °C ) Humidity (%) Winds ( mph kmh ) Pressure ( in mb ) Visibility ( mi km ) Precip ( " mm )
12:51 am 00:51 Clear 81 27.2 59 15 47 47 NW 13 20 29.78 1009 10 16 N/A
1:51 am 01:51 Clear 79 26.1 59 15 50 50 NW 8 13 29.79 1009 10 16 N/A
2:51 am 02:51 Clear 76 24.4 71 21.7 85 85 NNW 9 15 29.77 1008 10 16 N/A
3:51 am 03:51 Clear 80 26.7 73 22.7 79 79 NNW 9 15 29.91 1013 10 16 N/A
4:51 am 04:51 Clear 77 25 61 16.1 58 58 NNW 9 15 29.81 1009 10 16 N/A
5:51 am 05:51 Sunny 78 25.6 61 16.1 56 56 N 6 9 29.83 1010 10 16 N/A
6:51 am 06:51 Sunny 81 27.2 74 23.3 79 79 S 6 9 29.97 1015 10 16 N/A
7:51 am 07:51 Sunny 83 28.3 60 15.6 46 46 NW 10 17 29.85 1011 10 16 N/A
8:51 am 08:51 Sunny 88 31.1 59 15 38 38 NW 14 22 29.84 1011 10 16 N/A
9:51 am 09:51 Sunny 89 31.7 59 15 36 36 WNW 10 17 29.83 1010 10 16 N/A
10:51 am 10:51 Sunny 89 31.7 73 22.8 59 59 NW 6 9 29.96 1015 10 16 N/A
11:51 am 11:51 Sunny 97 36.1 54 12.2 24 24 WNW 9 15 29.78 1008 10 16 N/A
12:07 pm 12:07 Sunny with Nearby Thunderstorms 95 35 52 11.1 23 23 WSW 10 17 29.68 1005 10 16 N/A
12:29 pm 12:29 Sunny with Thunderstorms 92 33.3 51 10.6 25 25 W 15 24 29.68 1005 10 16 N/A
12:44 pm 12:44 Sunny with Nearby Thunderstorms 63 17.2 60 15.6 90 90 W 12 19 29.68 1005 10 16 N/A
12:51 pm 12:51 Sunny with Nearby Thunderstorms 82 27.5 75 24.1 82 82 SW 18 30 29.75 1008 10 16 N/A
12:57 pm 12:57 Sunny 94 34.4 29 -1.7 10 10 SW 22 35 29.84 1011 10 16 N/A
1:51 pm 13:51 Sunny 94 34.4 53 11.7 25 25 SW 13 20 29.74 1007 10 16 N/A
2:51 pm 14:51 Sunny 93 33.9 55 12.8 28 28 WSW 8 13 29.71 1006 10 16 N/A
3:51 pm 15:51 Sunny 94 34.4 55 12.8 27 27 NW 20 31 29.71 1006 10 16 N/A
4:16 pm 16:16 Sunny with Nearby Thunderstorms 91 33 54 12 28 28 N 16 26 29.62 1003 10 16 N/A
4:31 pm 16:31 Sunny 95 35 50 10 22 22 N 16 26 29.84 1011 10 16 N/A
4:51 pm 16:51 Sunny with Nearby Thunderstorms 91 32.8 49 9.4 24 24 NNW 18 30 29.70 1006 10 16 N/A
5:16 pm 17:16 Sunny 81 27.3 78 25.3 89 89 NNW 17 28 29.91 1013 10 16 N/A
5:51 pm 17:51 Sunny 93 33.9 47 8.3 21 21 WNW 10 17 29.68 1005 10 16 N/A
6:51 pm 18:51 Sunny 89 31.7 52 11.1 28 28 NW 12 19 29.69 1005 10 16 N/A
7:51 pm 19:51 Clear 85 29.4 55 12.8 36 36 N 7 11 29.70 1006 10 16 N/A
8:51 pm 20:51 Clear 83 28.3 57 13.9 41 41 N 6 9 29.71 1006 10 16 N/A
9:51 pm 21:51 Clear 81 27.2 69 20.6 67 67 W 5 7 29.95 1014 10 16 N/A
10:51 pm 22:51 Clear 77 25 59 15 54 54 ESE 7 11 29.74 1007 10 16 N/A
11:51 pm 23:51 Clear 77 25 58 14.4 52 52 E 6 9 29.72 1007 10 16 N/A

Powered by AerisWeather